TimeEDT,TemperatureF,Dew PointF,Humidity,Sea Level PressureIn,VisibilityMPH,Wind Direction,Wind SpeedMPH,Gust SpeedMPH,PrecipitationIn,Events,Conditions,WindDirDegrees,DateUTC
12:15 AM,75.2,75.2,100,29.81,10.0,West,3.5,-,N/A,,Scattered Clouds,270,2013-06-28 04:15:00
12:35 AM,75.2,75.2,100,29.81,10.0,Calm,Calm,-,N/A,,Clear,0,2013-06-28 04:35:00
12:55 AM,75.2,75.2,100,29.80,10.0,WNW,5.8,-,N/A,,Clear,290,2013-06-28 04:55:00
1:15 AM,77.0,75.2,94,29.80,10.0,NNW,3.5,-,N/A,,Clear,330,2013-06-28 05:15:00
1:35 AM,77.0,75.2,94,29.79,10.0,Calm,Calm,-,N/A,,Scattered Clouds,0,2013-06-28 05:35:00
1:55 AM,75.2,75.2,100,29.79,10.0,West,3.5,-,N/A,,Mostly Cloudy,270,2013-06-28 05:55:00
2:15 AM,75.2,75.2,100,29.78,10.0,West,4.6,-,N/A,,Scattered Clouds,280,2013-06-28 06:15:00
2:35 AM,77.0,73.4,89,29.78,10.0,WNW,3.5,-,N/A,,Clear,290,2013-06-28 06:35:00
2:55 AM,77.0,73.4,89,29.78,10.0,WNW,4.6,-,N/A,,Clear,300,2013-06-28 06:55:00
3:15 AM,77.0,71.6,83,29.77,10.0,WNW,5.8,-,N/A,,Clear,290,2013-06-28 07:15:00
3:35 AM,75.2,71.6,89,29.77,10.0,Calm,Calm,-,N/A,,Clear,0,2013-06-28 07:35:00
3:55 AM,73.4,73.4,100,29.77,10.0,Calm,Calm,-,N/A,,Clear,0,2013-06-28 07:55:00
4:15 AM,73.4,73.4,100,29.77,7.0,West,5.8,-,N/A,,Clear,270,2013-06-28 08:15:00
4:35 AM,73.4,73.4,100,29.77,10.0,Calm,Calm,-,N/A,,Clear,0,2013-06-28 08:35:00
4:55 AM,73.4,71.6,94,29.77,10.0,WSW,3.5,-,N/A,,Clear,250,2013-06-28 08:55:00
5:15 AM,71.6,71.6,100,29.76,10.0,West,3.5,-,N/A,,Clear,270,2013-06-28 09:15:00
5:35 AM,71.6,71.6,100,29.76,10.0,West,4.6,-,N/A,,Clear,270,2013-06-28 09:35:00
5:55 AM,71.6,71.6,100,29.76,10.0,WNW,4.6,-,N/A,,Clear,290,2013-06-28 09:55:00
6:15 AM,71.6,71.6,100,29.77,10.0,WSW,3.5,-,N/A,,Clear,240,2013-06-28 10:15:00
6:35 AM,71.6,71.6,100,29.78,7.0,West,6.9,-,N/A,,Clear,270,2013-06-28 10:35:00
6:55 AM,73.4,71.6,94,29.78,10.0,West,5.8,-,N/A,,Clear,260,2013-06-28 10:55:00
7:15 AM,73.4,71.6,94,29.77,10.0,WSW,3.5,-,N/A,,Clear,240,2013-06-28 11:15:00
7:35 AM,73.4,71.6,94,29.78,10.0,Calm,Calm,-,N/A,,Clear,0,2013-06-28 11:35:00
7:55 AM,75.2,71.6,89,29.78,10.0,WSW,4.6,-,N/A,,Clear,240,2013-06-28 11:55:00
8:55 AM,78.8,73.4,83,29.77,10.0,West,4.6,-,N/A,,Clear,260,2013-06-28 12:55:00
9:15 AM,80.6,71.6,74,29.77,10.0,West,4.6,-,N/A,,Clear,270,2013-06-28 13:15:00
9:35 AM,80.6,73.4,79,29.78,10.0,WSW,3.5,-,N/A,,Clear,240,2013-06-28 13:35:00
9:55 AM,80.6,73.4,79,29.77,10.0,Calm,Calm,-,N/A,,Clear,0,2013-06-28 13:55:00
10:15 AM,82.4,71.6,70,29.77,7.0,West,4.6,-,N/A,,Clear,260,2013-06-28 14:15:00
10:35 AM,82.4,71.6,70,29.76,7.0,WSW,4.6,-,N/A,,Clear,240,2013-06-28 14:35:00
10:55 AM,84.2,73.4,70,29.76,7.0,WSW,4.6,-,N/A,,Clear,240,2013-06-28 14:55:00
11:15 AM,84.2,71.6,66,29.77,7.0,SW,4.6,-,N/A,,Clear,220,2013-06-28 15:15:00
11:35 AM,86.0,71.6,62,29.76,7.0,SW,3.5,-,N/A,,Clear,220,2013-06-28 15:35:00
11:55 AM,86.0,69.8,58,29.77,10.0,WSW,5.8,-,N/A,,Clear,240,2013-06-28 15:55:00
12:15 PM,87.8,71.6,58,29.76,10.0,SSW,3.5,-,N/A,,Clear,200,2013-06-28 16:15:00
12:35 PM,87.8,71.6,58,29.76,7.0,SW,9.2,-,N/A,,Clear,230,2013-06-28 16:35:00
12:55 PM,89.6,73.4,59,29.75,7.0,SW,5.8,-,N/A,,Clear,230,2013-06-28 16:55:00
1:15 PM,89.6,71.6,55,29.75,10.0,SSW,6.9,-,N/A,,Clear,210,2013-06-28 17:15:00
1:35 PM,89.6,69.8,52,29.74,10.0,WSW,5.8,-,N/A,,Clear,250,2013-06-28 17:35:00
1:55 PM,91.4,69.8,49,29.73,10.0,WSW,6.9,-,N/A,,Clear,250,2013-06-28 17:55:00
2:15 PM,91.4,71.6,52,29.73,10.0,WSW,8.1,-,N/A,,Clear,240,2013-06-28 18:15:00
2:35 PM,91.4,69.8,49,29.70,10.0,SW,8.1,-,N/A,,Clear,230,2013-06-28 18:35:00
2:55 PM,91.4,69.8,49,29.70,7.0,WSW,8.1,-,N/A,,Scattered Clouds,240,2013-06-28 18:55:00
3:15 PM,95.0,68.0,41,29.68,10.0,WSW,6.9,-,N/A,,Clear,240,2013-06-28 19:15:00
3:35 PM,93.2,69.8,46,29.67,10.0,WSW,5.8,-,N/A,,Clear,240,2013-06-28 19:35:00
3:55 PM,95.0,69.8,44,29.67,10.0,SSW,3.5,-,N/A,,Clear,200,2013-06-28 19:55:00
4:15 PM,91.4,69.8,49,29.66,10.0,SW,5.8,-,N/A,,Clear,230,2013-06-28 20:15:00
4:35 PM,91.4,71.6,52,29.65,10.0,WSW,8.1,-,N/A,,Clear,240,2013-06-28 20:35:00
4:55 PM,91.4,71.6,52,29.65,10.0,SW,4.6,-,N/A,,Clear,220,2013-06-28 20:55:00
5:15 PM,91.4,69.8,49,29.65,10.0,SW,5.8,-,N/A,,Clear,230,2013-06-28 21:15:00
5:35 PM,91.4,71.6,52,29.65,10.0,SSW,5.8,-,N/A,,Clear,210,2013-06-28 21:35:00
5:55 PM,89.6,71.6,55,29.65,10.0,SW,4.6,-,N/A,,Clear,220,2013-06-28 21:55:00
6:15 PM,89.6,73.4,59,29.64,10.0,SSW,5.8,-,N/A,,Clear,200,2013-06-28 22:15:00
6:35 PM,87.8,73.4,62,29.63,10.0,South,3.5,-,N/A,,Clear,190,2013-06-28 22:35:00
6:55 PM,87.8,73.4,62,29.63,7.0,SSW,4.6,-,N/A,,Clear,200,2013-06-28 22:55:00
7:15 PM,87.8,73.4,62,29.62,10.0,SSW,4.6,-,N/A,,Clear,210,2013-06-28 23:15:00
7:35 PM,87.8,71.6,58,29.65,10.0,SW,6.9,-,N/A,,Clear,230,2013-06-28 23:35:00
7:55 PM,86.0,73.4,66,29.65,10.0,SW,5.8,-,N/A,,Clear,230,2013-06-28 23:55:00
8:15 PM,86.0,73.4,66,29.65,10.0,WSW,5.8,-,N/A,,Scattered Clouds,240,2013-06-29 00:15:00
8:35 PM,82.4,75.2,79,29.66,10.0,SW,3.5,-,N/A,Rain-Thunderstorm,Light Thunderstorms and Rain,220,2013-06-29 00:35:00
8:55 PM,73.4,71.6,94,29.67,1.8,SW,15.0,48.3,N/A,Rain-Thunderstorm,Heavy Thunderstorms and Rain,220,2013-06-29 00:55:00
9:15 PM,75.2,73.4,94,29.65,10.0,WSW,9.2,-,N/A,Thunderstorm,Mostly Cloudy,240,2013-06-29 01:15:00
9:35 PM,75.2,75.2,100,29.66,10.0,WSW,9.2,-,N/A,,Mostly Cloudy,250,2013-06-29 01:35:00
9:55 PM,75.2,75.2,100,29.66,10.0,WSW,6.9,-,N/A,,Scattered Clouds,250,2013-06-29 01:55:00
10:15 PM,75.2,73.4,94,29.67,10.0,WSW,6.9,-,N/A,,Clear,250,2013-06-29 02:15:00
10:35 PM,75.2,73.4,94,29.67,10.0,West,9.2,-,N/A,,Clear,270,2013-06-29 02:35:00
10:55 PM,75.2,71.6,89,29.67,10.0,West,6.9,-,N/A,,Clear,260,2013-06-29 02:55:00
11:15 PM,73.4,71.6,94,29.68,10.0,West,5.8,-,N/A,,Clear,270,2013-06-29 03:15:00
11:35 PM,73.4,71.6,94,29.69,10.0,WSW,5.8,-,N/A,,Clear,250,2013-06-29 03:35:00
11:55 PM,75.2,71.6,89,29.69,10.0,West,4.6,-,N/A,,Scattered Clouds,270,2013-06-29 03:55:00